Location: Dompnac
(44.5644°N, 4.1026°E)
Time: 18:08:10
(UTC+00:00)

Cosmos 1634 Rocket - Pass Details

Date: 26 January 2021
Orbit: 961 x 991 km, 82.9° (Epoch: 05 March)

Event Time Altitude Azimuth Distance (km) Brightness Sun altitude
Rises 06:18:06 0° 211° (SSW) 3,631 6.8 -9.2°
Reaches altitude 10° 06:20:47 10° 219° (SW) 2,689 6.1 -8.7°
Maximum altitude 06:26:26 38° 286° (WNW) 1,440 4.4 -7.8°
Drops below altitude 10° 06:32:10 10° 354° (N) 2,715 6.1 -6.8°
Sets 06:34:54 0° 2° (N) 3,669 6.8 -6.4°
